H1 CPF 2 NER 2024 4 8 9 099 01 glonass138 H2 1805301 9138 43508 2024 4 8 0 0 0 2024 4 11 23 45 0 900 1 1 0 0 0 1 H9 10 0 60408 0.00000 0 -2033181.637 -25398145.426 1441088.806 10 0 60408 900.00000 0 -2156349.360 -25004495.469 4637437.820 10 0 60408 1800.00000 0 -2169734.887 -24223846.634 7743844.857 10 0 60408 2700.00000 0 -2024219.187 -23085769.997 10700095.263 10 0 60408 3600.00000 0 -1677717.980 -21631212.776 13448908.208 10 0 60408 4500.00000 0 -1097200.461 -19910817.260 15937039.203 10 0 60408 5400.00000 0 -260325.279 -17982855.568 18116303.066 10 0 60408 6300.00000 0 843375.143 -15910866.435 19944498.366 10 0 60408 7200.00000 0 2211812.004 -13761092.327 21386216.344 10 0 60408 8100.00000 0 3830188.482 -11599822.991 22413519.649 10 0 60408 9000.00000 0 5671386.346 -9490755.156 23006478.629 10 0 60408 9900.00000 0 7696875.966 -7492477.187 23153555.471 10 0 60408 10800.00000 0 9858113.268 -5656182.135 22851829.174 10 0 60408 11700.00000 0 12098367.252 -4023703.209 22107057.039 10 0 60408 12600.00000 0 14354903.700 -2625952.449 20933571.161 10 0 60408 13500.00000 0 16561435.960 -1481826.823 19354011.222 10 0 60408 14400.00000 0 18650742.294 -597626.808 17398897.774 10 0 60408 15300.00000 0 20557341.926 32988.542 15106053.063 10 0 60408 16200.00000 0 22220118.981 428508.329 12519879.390 10 0 60408 17100.00000 0 23584785.108 618558.963 9690507.726 10 0 60408 18000.00000 0 24606077.638 642418.205 6672832.159 10 0 60408 18900.00000 0 25249600.702 547116.667 3525448.167 10 0 60408 19800.00000 0 25493231.264 385207.031 309515.006 10 0 60408 20700.00000 0 25328029.963 212295.677 -2912435.604 10 0 60408 21600.00000 0 24758617.427 84441.806 -6077720.897 10 0 60408 22500.00000 0 23802999.200 55535.198 -9124734.114 10 0 60408 23400.00000 0 22491845.852 174764.875 -11994152.324 10 0 60408 24300.00000 0 20867258.040 484287.345 -14630100.499 10 0 60408 25200.00000 0 18981068.162 1017194.689 -16981248.179 10 0 60408 26100.00000 0 16892750.098 1795870.008 -19001816.467 10 0 60408 27000.00000 0 14667025.022 2830801.243 -20652475.113 10 0 60408 27900.00000 0 12371264.121 4119904.802 -21901111.793 10 0 60408 28800.00000 0 10072797.491 5648388.656 -22723458.448 10 0 60408 29700.00000 0 7836242.143 7389161.646 -23103562.568 10 0 60408 30600.00000 0 5720961.001 9303772.534 -23034094.507 10 0 60408 31500.00000 0 3778758.886 11343839.908 -22516485.237 10 0 60408 32400.00000 0 2051911.256 13452913.337 -21560892.311 10 0 60408 33300.00000 0 571607.104 15568688.047 -20185995.163 10 0 60408 34200.00000 0 -643130.111 17625480.452 -18418624.180 10 0 60408 35100.00000 0 -1585999.990 19556861.027 -16293231.184 10 0 60408 36000.00000 0 -2263439.653 21298334.395 -13851212.000 10 0 60408 36900.00000 0 -2694096.473 22789954.500 -11140094.687 10 0 60408 37800.00000 0 -2907783.268 23978765.613 -8212609.568 10 0 60408 38700.00000 0 -2943961.794 24820967.201 -5125659.522 10 0 60408 39600.00000 0 -2849820.188 25283712.408 -1939210.950 10 0 60408 40500.00000 0 -2678026.887 25346465.345 1284872.696 10 0 60408 41400.00000 0 -2484257.005 25001860.965 4484031.868 10 0 60408 42300.00000 0 -2324596.441 24256032.239 7596222.843 10 0 60408 43200.00000 0 -2252933.850 23128391.635 10561117.072 10 0 60408 44100.00000 0 -2318450.791 21650876.713 13321264.896 10 0 60408 45000.00000 0 -2563315.995 19866691.843 15823201.442 10 0 60408 45900.00000 0 -3020680.832 17828598.907 18018473.913 10 0 60408 46800.00000 0 -3713060.312 15596828.220 19864571.211 10 0 60408 47700.00000 0 -4651167.738 13236696.451 21325738.793 10 0 60408 48600.00000 0 -5833252.225 10816030.011 22373663.991 10 0 60408 49500.00000 0 -7244967.469 8402500.137 22988019.396 10 0 60408 50400.00000 0 -8859778.191 6060979.313 23156854.497 10 0 60408 51300.00000 0 -10639888.549 3851027.574 22876828.430 10 0 60408 52200.00000 0 -12537655.323 1824611.848 22153279.379 10 0 60408 53100.00000 0 -14497428.575 24151.948 21000128.994 10 0 60408 54000.00000 0 -16457744.738 -1519026.521 19439623.003 10 0 60408 54900.00000 0 -18353782.291 -2785768.724 17501912.041 10 0 60408 55800.00000 0 -20119978.803 -3769652.235 15224479.657 10 0 60408 56700.00000 0 -21692701.047 -4477010.622 12651427.295 10 0 60408 57600.00000 0 -23012857.006 -4926418.117 9832628.905 10 0 60408 58500.00000 0 -24028340.429 -5147657.063 6822770.553 10 0 60408 59400.00000 0 -24696204.995 -5180211.606 3680292.971 10 0 60408 60300.00000 0 -24984475.994 -5071351.282 466257.171 10 0 60408 61200.00000 0 -24873522.250 -4873885.709 -2756844.731 10 0 60408 62100.00000 0 -24356929.305 -4643685.913 -5926309.977 10 0 60408 63000.00000 0 -23441835.841 -4437077.978 -8980452.463 10 0 60408 63900.00000 0 -22148718.019 -4308220.491 -11859812.009 10 0 60408 64800.00000 0 -20510629.862 -4306578.100 -14508321.042 10 0 60408 65700.00000 0 -18571930.989 -4474599.582 -16874405.001 10 0 60408 66600.00000 0 -16386554.808 -4845700.087 -18911994.113 10 0 60408 67500.00000 0 -14015889.797 -5442634.273 -20581426.182 10 0 60408 68400.00000 0 -11526362.801 -6276330.303 -21850222.427 10 0 60408 69300.00000 0 -8986825.804 -7345234.963 -22693721.062 10 0 60408 70200.00000 0 -6465855.668 -8635198.383 -23095556.374 10 0 60408 71100.00000 0 -4029079.751 -10119903.863 -23047974.231 10 0 60408 72000.00000 0 -1736638.959 -11761825.183 -22551978.256 10 0 60408 72900.00000 0 359106.301 -13513671.461 -21617304.241 10 0 60408 73800.00000 0 2215532.332 -15320259.065 -20262223.793 10 0 60408 74700.00000 0 3801289.930 -17120732.040 -18513181.420 10 0 60408 75600.00000 0 5097360.967 -18851037.897 -16404272.600 10 0 60408 76500.00000 0 6097591.337 -20446554.879 -13976573.286 10 0 60408 77400.00000 0 6808679.893 -21844760.451 -11277334.338 10 0 60408 78300.00000 0 7249625.887 -22987829.092 -8359056.890 10 0 60408 79200.00000 0 7450660.209 -23825050.479 -5278466.978 10 0 60408 80100.00000 0 7451707.300 -24314966.789 -2095409.812 10 0 60408 81000.00000 0 7300444.282 -24427139.709 1128314.514 10 0 60408 81900.00000 0 7050040.565 -24143473.439 4330150.941 10 0 60408 82800.00000 0 6756674.401 -23459038.635 7448001.471 10 0 60408 83700.00000 0 6476931.942 -22382363.244 10421425.763 10 0 60408 84600.00000 0 6265198.946 -20935178.484 13192807.182 10 0 60408 85500.00000 0 6171155.268 -19151630.897 15708462.052 10 0 60409 0.00000 0 6237477.620 -17076993.742 17919671.071 10 0 60409 900.00000 0 6497847.196 -14765930.159 19783614.872 10 0 60409 1800.00000 0 6975345.662 -12280382.943 21264193.615 10 0 60409 2700.00000 0 7681306.963 -9687174.303 22332719.697 10 0 60409 3600.00000 0 8614673.275 -7055417.077 22968468.036 10 0 60409 4500.00000 0 9761882.639 -4453842.683 23159075.231 10 0 60409 5400.00000 0 11097293.847 -1948155.518 22900780.100 10 0 60409 6300.00000 0 12584132.029 401477.808 22198501.043 10 0 60409 7200.00000 0 14175916.831 2542701.460 21065748.414 10 0 60409 8100.00000 0 15818315.111 4432912.358 19524372.973 10 0 60409 9000.00000 0 17451342.264 6040791.342 17604154.296 10 0 60409 9900.00000 0 19011821.523 7347360.417 15342235.949 10 0 60409 10800.00000 0 20435999.420 8346522.442 12782417.108 10 0 60409 11700.00000 0 21662208.554 9045060.915 9974313.123 10 0 60409 12600.00000 0 22633466.166 9462099.990 6972400.302 10 0 60409 13500.00000 0 23299899.156 9628047.449 3834962.709 10 0 60409 14400.00000 0 23620892.883 9583065.259 622961.031 10 0 60409 15300.00000 0 23566872.201 9375132.427 -2601154.443 10 0 60409 16200.00000 0 23120638.411 9057782.442 -5774663.271 10 0 60409 17100.00000 0 22278204.367 8687611.631 -8835802.333 10 0 60409 18000.00000 0 21049091.086 8321664.791 -11724976.476 10 0 60409 18900.00000 0 19456072.120 8014809.886 -14385927.761 10 0 60409 19800.00000 0 17534375.382 7817214.140 -16766839.566 10 0 60409 20700.00000 0 15330375.202 7772029.641 -18821353.109 10 0 60409 21600.00000 0 12899829.096 7913387.542 -20509475.972 10 0 60409 22500.00000 0 10305732.903 8264786.740 -21798364.473 10 0 60409 23400.00000 0 7615884.100 8837945.973 -22662964.483 10 0 60409 24300.00000 0 4900255.218 9632168.480 -23086498.272 10 0 60409 25200.00000 0 2228287.054 10634246.487 -23060788.151 10 0 60409 26100.00000 0 -333785.439 11818909.828 -22586410.991 10 0 60409 27000.00000 0 -2725463.394 13149799.934 -21672681.035 10 0 60409 27900.00000 0 -4894265.532 14580928.220 -20337461.817 10 0 60409 28800.00000 0 -6797666.653 16058557.424 -18606811.268 10 0 60409 29700.00000 0 -8404613.524 17523426.665 -16514467.344 10 0 60409 30600.00000 0 -9696556.373 18913226.503 -14101184.532 10 0 60409 31500.00000 0 -10667954.680 20165219.779 -11413934.540 10 0 60409 32400.00000 0 -11326238.046 21218897.926 -8504987.053 10 0 60409 33300.00000 0 -11691225.867 22018561.016 -5430888.800 10 0 60409 34200.00000 0 -11794032.186 22515713.036 -2251361.182 10 0 60409 35100.00000 0 -11675503.684 22671171.832 971861.758 10 0 60409 36000.00000 0 -11384258.249 22456805.208 4176232.169 10 0 60409 36900.00000 0 -10974408.104 21856820.491 7299600.484 10 0 60409 37800.00000 0 -10503064.474 20868553.732 10281417.215 10 0 60409 38700.00000 0 -10027729.611 19502725.644 13063901.304 10 0 60409 39600.00000 0 -9603686.349 17783153.747 15593152.709 10 0 60409 40500.00000 0 -9281495.120 15745932.690 17820188.287 10 0 60409 41400.00000 0 -9104703.511 13438116.743 19701881.734 10 0 60409 42300.00000 0 -9107864.363 10915958.847 21201790.266 10 0 60409 43200.00000 0 -9314945.295 8242778.734 22290853.051 10 0 60409 44100.00000 0 -9738196.272 5486547.614 22947948.776 10 0 60409 45000.00000 0 -10377522.743 2717288.471 23160302.275 10 0 60409 45900.00000 0 -11220391.029 4398.364 22923732.818 10 0 60409 46800.00000 0 -12242270.663 -2585997.704 22242739.370 10 0 60409 47700.00000 0 -13407596.217 -4993553.006 21130420.891 10 0 60409 48600.00000 0 -14671209.640 -7165962.697 19608232.597 10 0 60409 49500.00000 0 -15980224.119 -9060891.827 17705581.932 10 0 60409 50400.00000 0 -17276232.732 -10647488.373 15459270.935 10 0 60409 51300.00000 0 -18497770.437 -11907418.741 12912794.528 10 0 60409 52200.00000 0 -19582926.956 -12835382.835 10115507.091 10 0 60409 53100.00000 0 -20472001.157 -13439087.199 7121672.490 10 0 60409 54000.00000 0 -21110085.228 -13738677.424 3989415.197 10 0 60409 54900.00000 0 -21449469.321 -13765653.685 779592.470 10 0 60409 55800.00000 0 -21451764.329 -13561315.210 -2445390.441 10 0 60409 56700.00000 0 -21089651.976 -13174799.599 -5622798.699 10 0 60409 57600.00000 0 -20348186.905 -12660800.314 -8690795.474 10 0 60409 58500.00000 0 -19225594.218 -12077059.591 -11589653.931 10 0 60409 59400.00000 0 -17733527.338 -11481743.746 -14262928.963 10 0 60409 60300.00000 0 -15896773.918 -10930812.973 -16658564.916 10 0 60409 61200.00000 0 -13752421.075 -10475498.031 -18729916.765 10 0 60409 62100.00000 0 -11348514.151 -10159991.567 -20436664.240 10 0 60409 63000.00000 0 -8742264.684 -10019452.580 -21745600.636 10 0 60409 63900.00000 0 -5997882.322 -10078409.065 -22631280.764 10 0 60409 64800.00000 0 -3184121.158 -10349626.747 -23076515.514 10 0 60409 65700.00000 0 -371642.813 -10833491.922 -23072703.614 10 0 60409 66600.00000 0 2369693.806 -11517934.456 -22619994.522 10 0 60409 67500.00000 0 4973503.405 -12378894.082 -21727279.683 10 0 60409 68400.00000 0 7379394.985 -13381310.102 -20412012.793 10 0 60409 69300.00000 0 9535237.967 -14480592.451 -18699862.989 10 0 60409 70200.00000 0 11399080.283 -15624511.824 -16624208.107 10 0 60409 71100.00000 0 12940639.699 -16755428.856 -14225478.243 10 0 60409 72000.00000 0 14142307.605 -17812768.127 -11550362.758 10 0 60409 72900.00000 0 14999625.097 -18735632.447 -8650896.498 10 0 60409 73800.00000 0 15521213.326 -19465447.101 -5583443.370 10 0 60409 74700.00000 0 15728163.001 -19948522.453 -2407597.423 10 0 60409 75600.00000 0 15652910.619 -20138426.969 814976.833 10 0 60409 76500.00000 0 15337650.444 -19998070.723 4021742.062 10 0 60409 77400.00000 0 14832350.556 -19501411.832 7150500.156 10 0 60409 78300.00000 0 14192457.716 -18634714.161 10140595.164 10 0 60409 79200.00000 0 13476388.480 -17397303.597 12934083.865 10 0 60409 80100.00000 0 12742912.647 -15801791.156 15476851.656 10 0 60409 81000.00000 0 12048539.218 -13873753.446 17719652.705 10 0 60409 81900.00000 0 11445014.552 -11650883.473 19619055.025 10 0 60409 82800.00000 0 10977037.445 -9181646.610 21138273.081 10 0 60409 83700.00000 0 10680286.503 -6523496.832 22247872.781 10 0 60409 84600.00000 0 10579842.087 -3740726.218 22926336.150 10 0 60409 85500.00000 0 10689068.639 -902035.695 23160475.468 10 0 60410 0.00000 0 11009004.101 1922073.489 22945689.388 10 0 60410 900.00000 0 11528282.436 4661982.459 22286056.036 10 0 60410 1800.00000 0 12223592.594 7251598.138 21194261.392 10 0 60410 2700.00000 0 13060656.131 9630854.146 19691363.375 10 0 60410 3600.00000 0 13995683.201 11747962.788 17806395.421 10 0 60410 4500.00000 0 14977247.111 13561326.867 15575816.065 10 0 60410 5400.00000 0 15948499.852 15041032.102 13042813.916 10 0 60410 6300.00000 0 16849636.348 16169858.179 10256480.268 10 0 60410 7200.00000 0 17620504.289 16943766.247 7270864.352 10 0 60410 8100.00000 0 18203249.748 17371842.374 4143928.805 10 0 60410 9000.00000 0 18544886.680 17475699.273 936425.191 10 0 60410 9900.00000 0 18599681.063 17288361.357 -2289288.547 10 0 60410 10800.00000 0 18331247.859 16852680.290 -5470465.377 10 0 60410 11700.00000 0 17714270.707 16219348.121 -8545196.861 10 0 60410 12600.00000 0 16735770.119 15444592.479 -11453626.407 10 0 60410 13500.00000 0 15395864.939 14587651.968 -14139123.481 10 0 60410 14400.00000 0 13707993.344 13708139.318 -16549394.921 10 0 60410 15300.00000 0 11698582.663 12863404.761 -18637510.780 10 0 60410 16200.00000 0 9406180.709 12106011.925 -20362824.068 10 0 60410 17100.00000 0 6880084.153 11481433.691 -21691766.021 10 0 60410 18000.00000 0 4178520.825 11026065.873 -22598501.201 10 0 60410 18900.00000 0 1366461.529 10765642.911 -23065429.750 10 0 60410 19800.00000 0 -1486847.481 10714122.440 -23083527.234 10 0 60410 20700.00000 0 -4310528.610 10873085.631 -22652515.826 10 0 60410 21600.00000 0 -7034783.614 11231678.148 -21780863.957 10 0 60410 22500.00000 0 -9593558.319 11767093.705 -20485614.872 10 0 60410 23400.00000 0 -11927050.814 12445579.155 -18792047.863 10 0 60410 24300.00000 0 -13983959.370 13223918.099 -16733179.190 10 0 60410 25200.00000 0 -15723377.371 14051329.765 -14349112.746 10 0 60410 26100.00000 0 -17116257.375 14871702.471 -11686253.443 10 0 60410 27000.00000 0 -18146384.652 15626066.900 -8796398.995 10 0 60410 27900.00000 0 -18810821.140 16255204.411 -5735728.070 10 0 60410 28800.00000 0 -19119802.985 16702279.971 -2563704.907 10 0 60410 29700.00000 0 -19096097.797 16915388.410 658077.981 10 0 60410 30600.00000 0 -18773850.362 16849906.489 3867096.209 10 0 60410 31500.00000 0 -18196966.879 16470551.574 7001105.529 10 0 60410 32400.00000 0 -17417106.987 15753060.247 9999345.866 10 0 60410 33300.00000 0 -16491368.987 14685416.209 12803714.115 10 0 60410 34200.00000 0 -15479766.222 13268575.844 15359883.300 10 0 60410 35100.00000 0 -14442600.870 11516660.807 17618346.957 10 0 60410 36000.00000 0 -13437845.332 9456609.137 19535369.318 10 0 60410 36900.00000 0 -12518640.685 7127298.846 21073823.789 10 0 60410 37800.00000 0 -11731016.476 4578179.579 22203904.470 10 0 60410 38700.00000 0 -11111926.698 1867468.076 22903697.885 10 0 60410 39600.00000 0 -10687683.531 -940018.964 23159604.601 10 0 60410 40500.00000 0 -10472853.942 -3775306.283 22966603.080 10 0 60410 41400.00000 0 -10469665.037 -6567876.122 22328350.808 10 0 60410 42300.00000 0 -10667943.172 -9248352.087 21257120.522 10 0 60410 43200.00000 0 -11045589.689 -11751141.006 19773572.176 10 0 60410 44100.00000 0 -11569574.028 -14016924.407 17906364.133 10 0 60410 45000.00000 0 -12197403.334 -15994897.049 15691609.966 10 0 60410 45900.00000 0 -12879007.726 -17644659.985 13172190.169 10 0 60410 46800.00000 0 -13558962.727 -18937689.563 10396930.821 10 0 60410 47700.00000 0 -14178955.844 -19858321.023 7419664.149 10 0 60410 48600.00000 0 -14680393.518 -20404205.345 4298188.381 10 0 60410 49500.00000 0 -15007038.256 -20586219.951 1093146.651 10 0 60410 50400.00000 0 -15107563.906 -20427836.732 -2133153.257 10 0 60410 51300.00000 0 -14937920.024 -19963973.887 -5317955.061 10 0 60410 52200.00000 0 -14463404.021 -19239380.014 -8399281.729 10 0 60410 53100.00000 0 -13660351.832 -18306618.897 -11317149.965 10 0 60410 54000.00000 0 -12517373.972 -17223740.578 -14014746.835 10 0 60410 54900.00000 0 -11036083.040 -16051737.729 -16439544.602 10 0 60410 55800.00000 0 -9231280.378 -14851895.531 -18544331.142 10 0 60410 56700.00000 0 -7130592.606 -13683147.731 -20288135.186 10 0 60410 57600.00000 0 -4773572.105 -12599551.119 -21637027.946 10 0 60410 58500.00000 0 -2210298.276 -11647985.470 -22564785.273 10 0 60410 59400.00000 0 500462.530 -10866176.165 -23053397.540 10 0 60410 60300.00000 0 3293461.964 -10281122.735 -23093417.537 10 0 60410 61200.00000 0 6099447.775 -9907999.205 -22684139.983 10 0 60410 62100.00000 0 8847811.947 -9749571.948 -21833609.578 10 0 60410 63000.00000 0 11469298.835 -9796158.745 -20558457.894 10 0 60410 63900.00000 0 13898660.764 -10026129.817 -18883572.700 10 0 60410 64800.00000 0 16077150.969 -10406928.694 -16841606.563 10 0 60410 65700.00000 0 17954750.656 -10896568.849 -14472334.622 10 0 60410 66600.00000 0 19492038.162 -11445541.979 -11821874.401 10 0 60410 67500.00000 0 20661623.319 -11999056.533 -8941783.165 10 0 60410 68400.00000 0 21449088.414 -12499511.238 -5888050.733 10 0 60410 69300.00000 0 21853397.848 -12889098.542 -2720007.706 10 0 60410 70200.00000 0 21886760.955 -13112427.608 500829.301 10 0 60410 71100.00000 0 21573955.333 -13119055.780 3711952.701 10 0 60410 72000.00000 0 20951140.628 -12865821.512 6851075.745 10 0 60410 72900.00000 0 20064213.901 -12318880.277 9857337.533 10 0 60410 73800.00000 0 18966776.726 -11455357.621 12672477.935 10 0 60410 74700.00000 0 17717800.091 -10264549.705 15241959.941 10 0 60410 75600.00000 0 16379085.476 -8748620.716 17516018.246 10 0 60410 76500.00000 0 15012628.534 -6922767.479 19450614.543 10 0 60410 77400.00000 0 13677995.521 -4814843.757 21008281.874 10 0 60410 78300.00000 0 12429821.684 -2464459.011 22158842.716 10 0 60410 79200.00000 0 11315535.442 78412.043 22879987.805 10 0 60410 80100.00000 0 10373402.692 2755252.639 23157705.260 10 0 60410 81000.00000 0 9630972.160 5501185.837 22986552.245 10 0 60410 81900.00000 0 9103986.142 8247426.214 22369764.052 10 0 60410 82800.00000 0 8795801.776 10923901.378 21319198.338 10 0 60410 83700.00000 0 8697346.977 13461936.109 19855114.975 10 0 60410 84600.00000 0 8787613.034 15796889.112 18005794.906 10 0 60410 85500.00000 0 9034663.649 17870633.823 15807004.232 10 0 60411 0.00000 0 9397118.573 19633780.628 13301312.912 10 0 60411 900.00000 0 9826050.266 21047549.089 10537278.626 10 0 60411 1800.00000 0 10267213.635 22085209.685 7568514.005 10 0 60411 2700.00000 0 10663515.783 22733037.637 4452650.051 10 0 60411 3600.00000 0 10957620.860 22990735.975 1250218.680 10 0 60411 4500.00000 0 11094579.669 22871310.597 -1976525.180 10 0 60411 5400.00000 0 11024371.881 22400402.032 -5164818.549 10 0 60411 6300.00000 0 10704252.061 21615101.767 -8252618.107 10 0 60411 7200.00000 0 10100798.727 20562303.036 -11179815.895 10 0 60411 8100.00000 0 9191578.088 19296655.845 -13889418.297 10 0 60411 9000.00000 0 7966350.377 17878212.903 -16328664.395 10 0 60411 9900.00000 0 6427766.136 16369866.377 -18450060.969 10 0 60411 10800.00000 0 4591521.542 14834684.170 -20212313.281 10 0 60411 11700.00000 0 2485964.823 13333258.600 -21581133.080 10 0 60411 12600.00000 0 151169.181 11921179.596 -22529907.851 10 0 60411 13500.00000 0 -2362489.780 10646739.009 -23040218.317 10 0 60411 14400.00000 0 -4996193.245 9548962.526 -23102194.382 10 0 60411 15300.00000 0 -7684897.732 8656051.550 -22714702.904 10 0 60411 16200.00000 0 -10359820.691 7984299.890 -21885364.108 10 0 60411 17100.00000 0 -12951089.751 7537529.767 -20630396.781 10 0 60411 18000.00000 0 -15390445.410 7307069.706 -18974295.674 10 0 60411 18900.00000 0 -17613884.822 7272273.907 -16949347.808 10 0 60411 19800.00000 0 -19564136.894 7401559.822 -14594997.426 10 0 60411 20700.00000 0 -21192866.013 7653918.887 -11957072.300 10 0 60411 21600.00000 0 -22462513.200 7980835.412 -9086886.772 10 0 60411 22500.00000 0 -23347698.721 8328531.548 -6040239.283 10 0 60411 23400.00000 0 -23836128.624 8640442.565 -2876324.290 10 0 60411 24300.00000 0 -23928968.560 8859817.172 343419.958 10 0 60411 25200.00000 0 -23640670.570 8932332.465 3556505.069 10 0 60411 26100.00000 0 -22998261.470 8808612.695 6700604.127 10 0 60411 27000.00000 0 -22040123.933 8446545.325 9714757.672 10 0 60411 27900.00000 0 -20814322.452 7813296.565 12540550.717 10 0 60411 28800.00000 0 -19376545.171 6886941.370 15123238.274 10 0 60411 29700.00000 0 -17787748.297 5657639.176 17412798.090 10 0 60411 30600.00000 0 -16111601.803 4128305.685 19364890.986 10 0 60411 31500.00000 0 -14411843.030 2314751.992 20941711.045 10 0 60411 32400.00000 0 -12749648.236 245284.442 22112710.208 10 0 60411 33300.00000 0 -11181131.000 -2040219.223 22855184.154 10 0 60411 34200.00000 0 -9755070.962 -4491720.315 23154708.935 10 0 60411 35100.00000 0 -8510966.641 -7050859.152 23005420.426 10 0 60411 36000.00000 0 -7477492.633 -9653149.838 22410131.393 10 0 60411 36900.00000 0 -6671424.864 -12230440.450 21380283.727 10 0 60411 37800.00000 0 -6097078.257 -14713538.159 19935736.221 10 0 60411 38700.00000 0 -5746280.098 -17034891.725 18104391.089 10 0 60411 39600.00000 0 -5598880.242 -19131220.973 15921665.364 10 0 60411 40500.00000 0 -5623776.974 -20945984.591 13429816.151 10 0 60411 41400.00000 0 -5780415.765 -22431583.787 10677131.567 10 0 60411 42300.00000 0 -6020698.151 -23551209.714 7717001.995 10 0 60411 43200.00000 0 -6291220.461 -24280257.084 4606888.849 10 0 60411 44100.00000 0 -6535747.815 -24607244.128 1407210.387 10 0 60411 45000.00000 0 -6697818.455 -24534199.598 -1819833.832 10 0 60411 45900.00000 0 -6723367.477 -24076499.851 -5011476.680 10 0 60411 46800.00000 0 -6563257.838 -23262162.320 -8105611.165 10 0 60411 47700.00000 0 -6175610.083 -22130624.751 -11042007.288 10 0 60411 48600.00000 0 -5527830.617 -20731061.581 -13763493.381 10 0 60411 49500.00000 0 -4598251.013 -19120308.506 -16217077.916 10 0 60411 50400.00000 0 -3377307.357 -17360483.071 -18354989.006 10 0 60411 51300.00000 0 -1868208.262 -15516401.950 -20135610.650 10 0 60411 52200.00000 0 -87061.907 -13652904.106 -21524297.027 10 0 60411 53100.00000 0 1937544.473 -11832192.822 -22494048.748 10 0 60411 54000.00000 0 4165496.028 -10111308.520 -23026037.954 10 0 60411 54900.00000 0 6546593.545 -8539838.444 -23109972.256 10 0 60411 55800.00000 0 9022428.689 -7157958.970 -22744290.788 10 0 60411 56700.00000 0 11528613.190 -5994891.998 -21936189.007 10 0 60411 57600.00000 0 13997269.203 -5067839.153 -20701472.197 10 0 60411 58500.00000 0 16359677.016 -4381437.242 -19064240.963 10 0 60411 59400.00000 0 18548969.858 -3927756.331 -17056415.240 10 0 60411 60300.00000 0 20502763.562 -3686838.863 -14717106.400 10 0 60411 61200.00000 0 22165611.622 -3627755.500 -12091850.047 10 0 60411 62100.00000 0 23491183.573 -3710131.586 -9231714.736 10 0 60411 63000.00000 0 24444076.273 -3886078.382 -6192304.273 10 0 60411 63900.00000 0 25001183.104 -4102446.301 -3032673.385 10 0 60411 64800.00000 0 25152564.744 -4303303.911 185821.832 10 0 60411 65700.00000 0 24901786.079 -4432537.186 3400716.040 10 0 60411 66600.00000 0 24265706.252 -4436458.589 6549645.923 10 0 60411 67500.00000 0 23273731.730 -4266315.470 9571557.000 10 0 60411 68400.00000 0 21966564.618 -3880591.669 12407882.627 10 0 60411 69300.00000 0 20394499.417 -3247005.188 15003672.601 10 0 60411 70200.00000 0 18615339.973 -2344117.696 17308650.002 10 0 60411 71100.00000 0 16692023.868 -1162487.997 19278176.557 10 0 60411 72000.00000 0 14690053.301 294679.330 20874108.661 10 0 60411 72900.00000 0 12674839.153 2011417.925 22065528.486 10 0 60411 73800.00000 0 10709068.145 3959422.064 22829336.949 10 0 60411 74700.00000 0 8850201.797 6098991.086 23150697.836 10 0 60411 75600.00000 0 7148210.234 8380457.974 23023325.066 10 0 60411 76500.00000 0 5643634.079 10746044.333 22449607.741 10 0 60411 77400.00000 0 4366054.194 13132066.340 21440570.411 10 0 60411 78300.00000 0 3333032.243 15471401.703 20015668.790 10 0 60411 79200.00000 0 2549565.710 17696116.598 18202424.010 10 0 60411 80100.00000 0 2008079.855 19740144.504 16035901.372 10 0 60411 81000.00000 0 1688956.829 21541906.282 13558042.466 10 0 60411 81900.00000 0 1561579.840 23046762.654 10816862.318 10 0 60411 82800.00000 0 1585848.584 24209196.648 7865526.086 10 0 60411 83700.00000 0 1714102.228 24994634.322 4761322.362 10 0 60411 84600.00000 0 1893368.721 25380826.785 1564552.510 10 0 60411 85500.00000 0 2067845.106 25358734.606 -1662642.414 99